Flag for Spain Weather past 2 weeks in Santa Cruz de Tenerife, Canary Islands, Spain

Now
55 °F

Drizzle. Broken clouds.


Feels Like: 50 °F
Forecast: N/A
Wind: 22 mph from Northwest

Location: Tenerife / Los Rodeos

Current Time: Jan 30, 2015 at 5:27:12 PM

Latest Report: Jan 30, 2015 at 5:00 PM


Visibility: 0 mi

Pressure: 30.21 "Hg

Humidity: 100%

Dew point: 55 °F

Location of Santa Cruz de TenerifeLocation

Historic Weather in Santa Cruz de Tenerife — Graph

°F

Santa Cruz de Tenerife temperature yesterday

Maximum temperature yesterday: 57 °F (at 2:00 PM)
Minimum temperature yesterday: 50 °F (at 8:00 AM)
Average temperature yesterday: 53 °F

Past Weeks' High & Low Weather Summary

 TemperatureHumidityPressure
High59 °F (Jan 27, 1:00 PM)100% (Jan 15, 6:30 PM)30.45 "Hg (Jan 15, 6:30 PM)
Low48 °F (Jan 17, 7:30 AM)63% (Jan 17, 1:00 PM)30.15 "Hg (Jan 20, 2:00 PM)
Average53 °F87%30.30 "Hg
* Reported Jan 15 4:00 PM — Jan 30 4:30 PM, Santa Cruz de Tenerife, Weather by CustomWeather, © 2014

Note: Actual official high and low records may vary slightly from our data, if they occured in-between our weather recording intervals... More about our weather records

Advertising

Santa Cruz de Tenerife weather history for previous 24 hours

 ConditionsComfort  
Time TempWeatherWind HumidityBarometerVisibility
4:30 PM
Jan 30
55 °FDrizzle. Broken clouds.20 mph100%30.21 "Hg1 mi
4:00 PM55 °FDrizzle. Broken clouds.23 mph100%30.21 "Hg1 mi
3:30 PM55 °FDrizzle. Broken clouds.21 mph100%30.21 "Hg1 mi
3:00 PM57 °FDrizzle. Broken clouds.20 mph100%30.24 "Hg1 mi
2:30 PM57 °FDrizzle. Broken clouds.21 mph100%30.24 "Hg1 mi
2:00 PM57 °FDrizzle. Broken clouds.18 mph100%30.24 "Hg1 mi
1:30 PM55 °FDrizzle. Broken clouds.18 mph100%30.27 "Hg1 mi
1:00 PM57 °FDrizzle. Broken clouds.18 mph100%30.27 "Hg1 mi
12:30 PM57 °FBroken clouds.20 mph94%30.30 "Hg4 mi
12:00 PM55 °FCool.18 mph100%30.30 "Hg2 mi
11:30 AM55 °FDrizzle. Broken clouds.20 mph100%30.30 "Hg1 mi
11:00 AM55 °FCool.20 mph100%30.30 "Hg1 mi
10:48 AM55 °FCool.21 mph100%30.30 "Hg1 mi
10:30 AM55 °FDrizzle. Broken clouds.18 mph100%30.30 "Hg1 mi
10:00 AM54 °FCool.16 mph100%30.30 "Hg1 mi
9:30 AM54 °FDrizzle. Broken clouds.18 mph100%30.30 "Hg1 mi
9:00 AM54 °FBroken clouds.17 mph100%30.27 "HgN/A
8:30 AM54 °FBroken clouds.13 mph94%30.30 "HgN/A
8:00 AM54 °FFog.15 mph94%30.30 "HgN/A
7:49 AM54 °FPartly cloudy.16 mph94%30.30 "HgN/A
7:30 AM54 °FPartly cloudy.18 mph100%30.27 "HgN/A
7:00 AM54 °FPartly cloudy.14 mph100%30.27 "Hg4 mi
6:30 AM52 °FPartly cloudy.12 mph100%30.27 "HgN/A
6:00 AM54 °FPartly cloudy.14 mph88%30.27 "HgN/A
11:00 PM
Jan 29
52 °FPartly cloudy.15 mph88%30.33 "Hg5 mi
10:30 PM52 °FPartly cloudy.12 mph94%30.33 "Hg5 mi
10:00 PM52 °FPartly cloudy.13 mph94%30.33 "Hg5 mi
9:30 PM52 °FPartly cloudy.14 mph94%30.33 "Hg5 mi
9:00 PM52 °FPartly cloudy.13 mph94%30.33 "Hg5 mi
8:30 PM52 °FCool.16 mph94%30.30 "Hg5 mi
8:00 PM52 °FPartly cloudy.14 mph100%30.30 "Hg5 mi
7:30 PM52 °FPassing clouds.10 mph94%30.30 "HgN/A
7:00 PM52 °FPassing clouds.10 mph88%30.33 "HgN/A
6:30 PM52 °FDrizzle. Partly sunny.15 mph94%30.30 "HgN/A
6:00 PM54 °FPartly sunny.12 mph82%30.30 "HgN/A
5:30 PM54 °FPartly sunny.14 mph77%30.30 "HgN/A
5:00 PM54 °FPartly sunny.16 mph82%30.30 "HgN/A
Weather by CustomWeather, © 2014

See weather overviewHow to use our weather pages